Salalah Airport

Jump to: basic info | weather | frequencies | runways | comments

Related pages: nearby airports | nearby navaids | notams | map

Basic information (top)

Codes: SLL OOSA
Location: lon 17.038700, lat 54.091301, elev 73 ft / 22 m msl
Status: medium_airport
Scheduled airline service: yes
Links: Wikipedia Mobile

Weather (top)

Current conditions (rec'd 2015/01/30 11:50Z):

OOSA 301150Z AUTO 15005KT 9999 26/16 Q1017

Airport forecast (rec'd 2015/01/30 00:00Z):

TAF OOSA 292308Z 3000/3106 VRB02KT CAVOK 
      BECMG 3006/3008 16008KT FEW025 
      BECMG 3017/3019 VRB03KT

Frequencies (top)

Verify before use: may be inaccurate or out of date.

APP: 119.1 MHz (APP)
RDR: 119.1 MHz (RDR)
TWR: 118.2 MHz (TWR)

Runways (top)

07/25: 10,965 x 148 ft (3,342 x 45 m) — paved — lighted

17/35 [CLOSED]: 4,196 x 59 ft (1,279 x 18 m) — grass — not lighted

Latest comments (top)

No comments yet for Salalah Airport

More... (top)

See also NOTAMs and nearby airports and navaids, or visit the Salalah Airport page at the main OurAirports website..